Date,TemperatureHighF,TemperatureAvgF,TemperatureLowF,DewpointHighF,DewpointAvgF,DewpointLowF,HumidityHigh,HumidityAvg,HumidityLow,PressureMaxIn,PressureMinIn,WindSpeedMaxMPH,WindSpeedAvgMPH,GustSpeedMaxMPH,PrecipitationSumIn
2013-7-1,81.5,70.3,62.5,68.0,63.7,58.5,90,80,58,29.94,29.78,24,2,24,1.29
2013-7-2,81.7,71.1,61.7,70.0,64.3,58.7,90,80,62,30.04,29.90,8,2,8,0.17
2013-7-3,78.7,72.7,67.2,69.7,66.8,64.2,90,82,72,30.13,30.02,12,2,12,0.00
2013-7-4,71.2,68.3,65.0,67.2,64.4,62.0,90,88,79,30.15,30.08,12,2,12,1.62
2013-7-5,74.3,69.6,65.6,71.1,66.6,62.6,90,90,88,30.15,30.09,8,1,8,1.11
2013-7-6,74.8,69.7,67.6,68.6,66.1,63.4,90,88,77,30.15,30.08,12,3,12,0.65
2013-7-7,84.5,73.5,66.2,68.3,65.4,63.2,90,77,55,30.13,30.05,10,2,10,0.03
2013-7-8,88.3,77.4,67.3,71.9,67.7,63.8,90,73,51,30.16,30.05,12,2,12,0.00
2013-7-9,89.2,81.0,73.6,73.8,70.6,67.8,88,72,53,30.12,30.00,12,3,12,0.02
2013-7-10,89.7,77.3,70.2,76.5,71.3,66.0,90,82,62,30.02,29.84,20,4,20,1.18
2013-7-11,84.5,74.7,68.6,71.1,67.2,61.6,90,78,60,29.98,29.92,16,4,16,0.00
2013-7-12,80.8,71.3,62.0,61.7,57.7,55.1,79,64,42,30.07,29.98,18,6,18,0.00
2013-7-13,82.9,72.4,62.8,68.5,62.7,57.6,84,72,51,30.10,30.01,12,4,12,0.04
2013-7-14,94.0,80.1,69.2,75.2,69.8,64.8,87,72,50,30.20,30.08,12,3,12,0.00
2013-7-15,94.2,82.5,71.4,72.4,69.3,65.8,83,66,46,30.29,30.20,10,2,10,0.00
2013-7-16,95.0,83.2,72.4,73.3,70.1,67.2,85,66,47,30.32,30.24,7,1,7,0.00
2013-7-17,94.9,82.8,74.1,74.2,71.1,68.4,87,69,47,30.29,30.17,10,2,10,0.00
2013-7-18,91.4,80.5,74.3,76.2,71.8,67.0,88,76,55,30.20,30.04,9,1,9,0.09
2013-7-19,90.5,80.4,72.3,75.8,71.8,67.4,89,76,57,30.07,29.92,13,3,13,0.00
2013-7-20,90.1,81.0,73.6,74.6,71.5,69.8,88,74,55,29.96,29.85,16,4,16,0.00
2013-7-21,88.0,78.3,71.8,73.0,70.4,67.9,90,78,56,29.96,29.87,8,2,8,0.60
2013-7-22,77.6,73.4,71.3,71.7,69.7,67.9,90,88,81,29.93,29.78,10,2,10,0.89
2013-7-23,87.0,77.5,67.5,73.8,70.5,62.8,90,80,63,29.86,29.75,34,4,35,1.33
2013-7-24,80.3,70.6,62.5,66.7,61.9,57.8,90,75,53,29.96,29.79,14,4,14,6.58
2013-7-25,79.8,70.1,60.4,61.1,58.2,55.6,85,67,50,30.08,29.96,12,4,12,0.00
2013-7-26,82.1,71.2,57.3,63.5,59.2,53.1,88,67,51,30.09,29.99,10,2,10,0.00
2013-7-27,76.0,70.1,65.8,65.8,63.3,59.8,89,79,69,29.99,29.86,14,2,14,0.02
2013-7-28,75.3,65.9,55.0,59.6,52.6,47.7,85,64,43,30.09,29.91,12,2,12,0.00
2013-7-29,80.3,68.1,54.6,60.5,56.1,50.8,88,67,49,30.19,30.09,14,2,14,0.00
2013-7-30,82.8,70.7,61.2,65.1,61.1,57.2,88,73,50,30.23,30.13,7,1,7,0.03
2013-7-31,73.0,68.5,63.5,67.5,64.4,60.5,90,87,80,30.14,29.96,8,2,8,0.20